Haleyville, AL

10:20 PM CDT on August 30, 2016 (GMT -0500)
Haleyville

Weather History for K1M4 - October, 2014

Change the Weather History Date:

Thursday, October 9, 2014

  Actual Average (KJFX) Record (KJFX)
Temperature  
Mean Temperature 70 °F -  
Max Temperature 82 °F 74 °F 91 °F (2014)
Min Temperature 59 °F 48 °F 31 °F (1978)
Cooling Degree Days 6    
Growing Degree Days 20 (Base 50)    
Moisture  
Dew Point 64 °F    
Average Humidity 91    
Maximum Humidity 100    
Minimum Humidity 56    
Precipitation  
Precipitation 0.01 in - - ()
Sea Level Pressure  
Sea Level Pressure 30.14 in    
Wind  
Wind Speed 0 mph (South)    
Max Wind Speed 7 mph    
Max Gust Speed -    
Visibility 7 miles    
Events      
Averages and records for this station are not official NWS values.
T = Trace of Precipitation, MM = Missing Value Source: NWS Daily Summary

Daily Weather History Graph

Daily Weather History Graph

Search for Another Location

Airport or City:

Trip Planner

Search our weather history database for the weather conditions in past years. The results will help you decide how hot, cold, wet, or windy it might be!

Date:

Astronomy

Oct. 09, 2014 Rise Set
Actual Time 6:50 AM CDT 6:23 PM CDT
Civil Twilight 6:25 AM CDT 6:48 PM CDT
Nautical Twilight 5:56 AM CDT 7:17 PM CDT
Astronomical Twilight 5:27 AM CDT 7:46 PM CDT
Moon 7:24 PM CDT (10/9) 8:02 AM CDT (10/9)
Length of Visible Light 12h 23m
Length of Day
11h 32m
Full, 98% of the Moon is Illuminated
Oct 9
Full
Oct 15
Last Quarter
Oct 23
New
Oct 30
First Quarter
Nov 6
Full

Hourly Weather History & Observations

Time (CDT) Temp. Heat Index Dew Point Humidity Pressure Visibility Wind Dir Wind Speed Gust Speed Precip Events Conditions
12:56 AM 61.9 °F - 61.9 °F 100% 30.16 in 8.0 mi Calm Calm - N/A   Clear
1:25 AM 62.6 °F - 62.6 °F 100% 30.13 in 2.0 mi Calm Calm - N/A   Clear
1:35 AM 62.6 °F - 62.6 °F 100% 30.13 in 3.0 mi Calm Calm - N/A   Clear
1:56 AM 61.9 °F - 61.9 °F 100% 30.16 in 5.0 mi Calm Calm - N/A   Clear
2:40 AM 60.8 °F - 60.8 °F 100% 30.13 in 1.5 mi Calm Calm - N/A   Clear
2:42 AM 60.8 °F - 60.8 °F 100% 30.13 in 1.0 mi Calm Calm - N/A   Clear
2:56 AM 61.0 °F - 61.0 °F 100% 30.16 in 2.5 mi Calm Calm - N/A   Clear
3:10 AM 60.8 °F - 60.8 °F 100% 30.12 in 1.5 mi Calm Calm - N/A   Clear
3:16 AM 60.8 °F - 60.8 °F 100% 30.13 in 3.0 mi Calm Calm - N/A   Clear
3:40 AM 60.8 °F - 60.8 °F 100% 30.13 in 2.5 mi Calm Calm - N/A   Clear
3:48 AM 60.8 °F - 60.8 °F 100% 30.13 in 3.0 mi Calm Calm - N/A   Clear
3:56 AM 59.9 °F - 59.9 °F 100% 30.16 in 2.0 mi Calm Calm - N/A   Clear
4:09 AM 60.8 °F - 60.8 °F 100% 30.13 in 4.0 mi Calm Calm - N/A   Scattered Clouds
4:56 AM 59.9 °F - 59.9 °F 100% 30.17 in 6.0 mi Calm Calm - N/A   Clear
5:56 AM 59.9 °F - 59.9 °F 100% 30.16 in 8.0 mi Calm Calm - N/A   Clear
6:56 AM 59.9 °F - 59.9 °F 100% 30.17 in 9.0 mi Calm Calm - N/A   Scattered Clouds
7:56 AM 63.0 °F - 63.0 °F 100% 30.19 in 10.0 mi Calm Calm - N/A   Clear
8:56 AM 68.0 °F - 65.8 °F 93% 30.20 in 10.0 mi Calm Calm - N/A   Clear
9:56 AM 73.9 °F - 66.9 °F 79% 30.21 in 10.0 mi Calm Calm - N/A   Clear
10:56 AM 77.9 °F - 68.0 °F 71% 30.21 in 10.0 mi Variable 6.9 mph - N/A   Clear
11:56 AM 79.0 °F - 68.0 °F 69% 30.20 in 10.0 mi Calm Calm - 0.01 in   Scattered Clouds
12:56 PM 79.9 °F - 68.0 °F 67% 30.18 in 10.0 mi Calm Calm - N/A   Scattered Clouds
1:56 PM 81.0 °F 83.8 °F 68.0 °F 65% 30.14 in 10.0 mi Calm Calm - N/A   Scattered Clouds
2:56 PM 81.9 °F 84.2 °F 66.9 °F 60% 30.12 in 10.0 mi Calm Calm - N/A   Partly Cloudy
3:56 PM 82.9 °F 85.0 °F 65.8 °F 56% 30.11 in 10.0 mi South 4.6 mph - N/A   Clear
4:56 PM 81.9 °F 84.2 °F 66.9 °F 60% 30.09 in 10.0 mi Calm Calm - N/A   Clear
5:56 PM 75.9 °F - 70.9 °F 84% 30.09 in 10.0 mi Calm Calm - N/A   Clear
6:56 PM 72.0 °F - 70.0 °F 93% 30.10 in 10.0 mi Calm Calm - N/A   Clear
7:56 PM 70.0 °F - 70.0 °F 100% 30.11 in 10.0 mi Calm Calm - N/A   Clear
8:56 PM 68.0 °F - 68.0 °F 100% 30.12 in 7.0 mi Calm Calm - N/A   Clear
9:56 PM 65.8 °F - 65.8 °F 100% 30.11 in 10.0 mi Calm Calm - N/A   Clear
10:56 PM 68.9 °F - 65.8 °F 90% 30.11 in 10.0 mi Calm Calm - N/A   Clear
11:56 PM 65.8 °F - 65.8 °F 100% 30.10 in 9.0 mi Calm Calm - N/A   Clear